(349) Dembowska
ephemeris date magn radius delta ra dec elong phase
Opposition11 May 202510.33.131 AU2.122 AU15h11m-21°57'176.0°1.3°
Today1 Jul 202511.33.102 AU2.405 AU14h40m-20°51'125.0°15.6°
(349) Dembowska - 2025-07-01
astro.vanbuitenen.nl


 
-1 year
-1 month
-1 day
Now
+1 day
+1 month
+1 year

The interactive orbit chart above shows the body's path through the solar system and its position at the given date. Green and blue lines are shown perpendicular to the ecliptic plane: Green if the path is above the ecliptic plane, blue if it is below. (Left-click and drag to rotate the view; Right-click and drag to move the view; Use scroll wheel to zoom in our out.)

The orbital elements of Dembowska are:

            e (Eccentricity)                : 0.0887058
            a (Semimajor axis)              : 2.9251394
            i (Inclination)                 : 8.24906
            Ω (Longitude of ascending node) : 32.19631
            ω (Argument of perihelion)      : 344.51796
            M (Mean anomaly)                : 219.46952
            Epoch                           : 2025 May 05

            L (Longitude of perihelion)     : 16.86688
            B (Latitude of perihelion)      : -2.19491
            P (Orbital period in years)     : 5.00            
        

The light curve chart below shows the estimated development of the minor planet's magnitude.


The all-sky chart below shows the path of the minor planet over the same period as the light curve. The current position is marked yellow.





The following chart shows the path of the minor planet in the next few days. The field of view is optimized for (~10x50) binoculars and finderscopes. A more printer-friendly version of the same chart can be found below.




Ephemerides:
Date       Time       RA (2000)    DEC (2000)    delta   radius  elong  phase   PA    magn
2025-07-01 00:00 UT   14 40 55.0   -20 51 25     2.405    3.102  125.0   15.6   104   11.3 
2025-07-01 01:06 UT   14 40 54.7   -20 51 25     2.405    3.102  125.0   15.6   104   11.3 
2025-07-02 00:00 UT   14 40 49.9   -20 51 22     2.416    3.102  124.1   15.8   104   11.3 
2025-07-03 00:00 UT   14 40 46.2   -20 51 24     2.427    3.101  123.1   15.9   104   11.3 
2025-07-04 00:00 UT   14 40 43.8   -20 51 31     2.438    3.100  122.1   16.1   105   11.3 
2025-07-05 00:00 UT   14 40 42.9   -20 51 43     2.449    3.100  121.2   16.3   105   11.3 
2025-07-06 00:00 UT   14 40 43.3   -20 52 00     2.460    3.099  120.2   16.5   105   11.3 
2025-07-07 00:00 UT   14 40 45.2   -20 52 22     2.471    3.098  119.3   16.6   105   11.3 
2025-07-08 00:00 UT   14 40 48.3   -20 52 49     2.483    3.098  118.4   16.8   105   11.4 
2025-07-09 00:00 UT   14 40 52.9   -20 53 20     2.494    3.097  117.4   16.9   105   11.4 
2025-07-10 00:00 UT   14 40 58.7   -20 53 57     2.506    3.097  116.5   17.1   105   11.4 
2025-07-11 00:00 UT   14 41 05.9   -20 54 39     2.518    3.096  115.6   17.2   105   11.4 
2025-07-12 00:00 UT   14 41 14.4   -20 55 25     2.530    3.095  114.7   17.4   105   11.4 
2025-07-13 00:00 UT   14 41 24.3   -20 56 17     2.542    3.095  113.8   17.5   105   11.4 
2025-07-14 00:00 UT   14 41 35.4   -20 57 13     2.554    3.094  112.9   17.6   106   11.5 
2025-07-15 00:00 UT   14 41 47.9   -20 58 14     2.566    3.093  112.0   17.7   106   11.5 
2025-07-16 00:00 UT   14 42 01.6   -20 59 20     2.578    3.093  111.1   17.9   106   11.5 
2025-07-17 00:00 UT   14 42 16.6   -21 00 31     2.590    3.092  110.2   18.0   106   11.5 
2025-07-18 00:00 UT   14 42 32.9   -21 01 47     2.603    3.091  109.3   18.1   106   11.5 
2025-07-19 00:00 UT   14 42 50.4   -21 03 07     2.615    3.091  108.4   18.2   106   11.5 
2025-07-20 00:00 UT   14 43 09.2   -21 04 32     2.628    3.090  107.6   18.3   106   11.5 
2025-07-21 00:00 UT   14 43 29.2   -21 06 02     2.640    3.089  106.7   18.4   106   11.5 
2025-07-22 00:00 UT   14 43 50.5   -21 07 37     2.653    3.089  105.8   18.4   106   11.6 
2025-07-23 00:00 UT   14 44 12.9   -21 09 16     2.666    3.088  105.0   18.5   106   11.6 
2025-07-24 00:00 UT   14 44 36.6   -21 10 60     2.678    3.087  104.1   18.6   106   11.6 
2025-07-25 00:00 UT   14 45 01.5   -21 12 48     2.691    3.087  103.3   18.7   106   11.6 
2025-07-26 00:00 UT   14 45 27.6   -21 14 41     2.704    3.086  102.4   18.7   106   11.6 
2025-07-27 00:00 UT   14 45 54.9   -21 16 39     2.717    3.086  101.6   18.8   106   11.6 
2025-07-28 00:00 UT   14 46 23.4   -21 18 41     2.730    3.085  100.7   18.9   106   11.6 
2025-07-29 00:00 UT   14 46 53.0   -21 20 47     2.743    3.084   99.9   18.9   106   11.6 
2025-07-30 00:00 UT   14 47 23.7   -21 22 58     2.756    3.084   99.1   19.0   106   11.7 
2025-07-31 00:00 UT   14 47 55.6   -21 25 12     2.769    3.083   98.3   19.0   107   11.7 


    Terminology:
            
    delta:  distance between minor planet and earth in AU
    radius: distance between minor planet and sun in AU
    magn:   magnitude (brightness) estimate    
    ra:     right ascension in hours (24h = 360deg)
    dec:    declination in degrees
    elong:  elongation in degrees (angle sun-earth-minor planet)    
    phase:  phase angle in degrees (angle sun-minor planet-earth)        
    AU:     Astronomical Unit (mean distance between earth and sun: 149597870.7 km
    

Orbital elements provided by the MPC (Minor Planet Center).
Calculations by a modified version of AAPlus, a C# implementation of the AA+ project by PJ Naughter from the algorithms presented in the book "Astronomical Algorithms" by Jean Meeus.
NGC2000 dso catalog and star labels from VizieR as provided by the Strasbourg astronomical Data Center.
Tycho2 catalog from the ESO archive.